Location: Brno
(49.2000°N, 16.6330°E)
Time: 12:19:21
(UTC+01:00)

CARTOSAT-1 - Visible Passes

Search period start: 27 February 2017 00:00
Search period end: 09 March 2017 00:00
Orbit: 616 x 621 km, 97.9° (Epoch: 27 February)

Date Brightness Start Highest point End Pass type
(mag) Time Alt. Az. Time Alt. Az. Time Alt. Az.
04 Mar 6.3 20:41:17 10° NNE 20:41:17 10° NNE 20:41:19 10° NNE visible
05 Mar 6.3 20:58:08 11° N 20:58:08 11° N 20:58:24 10° N visible
06 Mar 6.3 21:14:58 12° N 21:14:58 12° N 21:15:23 10° N visible
07 Mar 6.4 21:31:48 13° N 21:31:48 13° N 21:32:16 10° N visible
08 Mar 6.5 21:48:39 13° NNW 21:48:39 13° NNW 21:49:05 10° NNW visible
